Location: Austin
(30.3000°N, 97.7500°W)
Time: 10:17:29
(UTC-05:00)

Atlas Centaur 2 - Pass Details

Date: 26 May 2023
Orbit: 458 x 1293 km, 30.4° (Epoch: 31 May)

Event Time Altitude Azimuth Distance (km) Brightness Sun altitude
Rises 21:35:07 0° 272° (W) 3,488 6.4 -13.9°
Reaches altitude 10° 21:37:59 10° 272° (W) 2,400 5.4 -14.4°
Maximum altitude 21:43:36 89° 1° (N) 680 1.7 -15.4°
Enters shadow 21:46:26 23° 92° (E) 1,320 2.8 -15.9°
